Aérodrome :
LOGIN :

S'inscrire | Disclaimer

   EN    FR    IT 

 










Légende :    VFR   VFR Marginal   IFR   IFR Intensif   IFR Très Intensif
Visi : 
Plafond : 
>= 8 km
>= 3000ft
5 à 8 km
1000 à 3000 ft
1500m à 5 km
500 à 1000 ft
800 à 1500m
200 à 500 ft
< 800m
< 200 ft
Symboles :   Orages  Brouillard  Fortes neiges  Fortes précipitations  Vent > 20 kt
SIGMETs :   Divers  Orages  Givrage  Turbulence  Onde Orograph.  Cendres Volcan.







- Altitude de l'aérodrome : 219 ft
- Code IATA : DNR
- Voir les cartes d'approche


LFRD - Dinard

DERNIER METAR :
  • 182030Z AUTO 04009KT CAVOK 14/12 Q1023 NOSIG

METARs EXPIRÉS :
  • 182000Z AUTO 04007KT CAVOK 14/12 Q1023 NOSIG
  • 181930Z AUTO 04007KT CAVOK 14/12 Q1023 NOSIG
  • 181900Z AUTO 04008KT CAVOK 15/12 Q1023 NOSIG
  • 181830Z AUTO 05008KT CAVOK 15/12 Q1022 NOSIG
  • 181800Z AUTO 05009KT CAVOK 15/12 Q1022 NOSIG

TAF TAF LFRD
Valide du 18 à 18h jusqu'au 19 à 18h UTC


181700Z 1818/1918 05010KT CAVOK
TEMPO 1902/1906 04005KT
TEMPO 1909/1912 BKN015
ATIS : +33 2 99 16 81 50
Pas de NOTAMs connus pour ce terrain.



MET'MAP, la Météo Aéronautique d'un coup d'oeil ! - Copyright ORBIFLY Décembre 2007 - Disclaimer

ORBIFLY MET'MAP TEAM :

Programmation & Développement : Alexandra Zaïnal
Conception & Développement : Baudouin d'Aumeries
Co-Programmation & Développement : Marc-Olivier Méhu
Soutien technique & logistique : Manuel Goepfert

Contact : metmap@orbifly.com




SOURCES & CREDITS :

   NOAA